Regional Weather Roundup
Issued by NWS

Home | Current Version | Previous Version | Graphics & Text | Print | Product List | Glossary On
Versions: 1 2 3 4 5 6 7 8 9 10 11 12 13 14 15 16 17 18 19 20 21 22 23 24 25 26 27 28 29 30 31 32 33 34 35 36 37 38 39 40 41 42 43 44 45 46 47 48 49 50
000
ASUS43 KIND 191409
RWRIN

WEATHER ROUNDUP FOR INDIANA
NATIONAL WEATHER SERVICE INDIANAPOLIS IN
1000 AM EDT THU OCT 19 2017

NOTE: "FAIR" INDICATES FEW OR NO CLOUDS BELOW 12,000 FEET WITH NO
SIGNIFICANT WEATHER AND/OR OBSTRUCTIONS TO VISIBILITY.

* - STATION DOES NOT REPORT WEATHER SUCH AS PRECIPITATION OR FOG.

+ - STATION NOT QUALITY CONTROLLED BY THE NATIONAL WEATHER SERVICE.
    USE DATA WITH CAUTION...ESPECIALLY DEWPOINT AND RELATIVE
    HUMIDITY OBSERVATIONS.

INZ001>003-010>013-019-020-191500-
NORTHWEST INDIANA

CITY           SKY/WX    TMP DP  RH WIND       PRES   REMARKS
GARY /AIRPORT/ MOSUNNY   57  48  72 W9        30.17R
KNOX *+        SUNNY     54  46  76 W7        30.16R
LA PORTE +     SUNNY     53  48  83 W6        30.16R
MICHIGAN CITY+ SUNNY     55  48  76 W6        30.16R
MONTICELLO +   SUNNY     56  48  76 SW7       30.17R
RENSSELAER +   SUNNY     55  45  67 SW6       30.18R
VALPARAISO     SUNNY     56  49  77 W8        30.16R

$$

LMZ046-743>745-191500-
SOUTHERN LAKE MICHIGAN

STATION/POSITION TIME  TEMP    WIND        PRES    WAVE
                       AIR SEA DIR/SP/G            HT
                 (UTC) (F)     (DEG/KT/KT) (MB)    (FT)
BURNS HARBOR     1340   56     240/  7/  9 1021.3R
MICHIGAN CITY    1340   56     230/ 12/ 13   N/A
5NW MICH CITY    1400   57 57  270/  8/ 10   N/A     2

$$

INZ004-005-014>016-021>024-191500-
NORTH CENTRAL INDIANA

CITY           SKY/WX    TMP DP  RH WIND       PRES   REMARKS
ELKHART        CLOUDY    55  46  71 W8        30.14R
GOSHEN         CLOUDY    55  46  71 SW10      30.14R
LOGANSPORT +   SUNNY     54  48  82 SW9       30.19R
PERU/GRISSOM   SUNNY     57  49  76 SW12      30.17R
SOUTH BEND     SUNNY     52  48  86 SW9       30.16R
WARSAW +       CLOUDY    55  46  71 W10       30.16R

$$

INZ006>009-017-018-025>027-191500-
NORTHEAST INDIANA

CITY           SKY/WX    TMP DP  RH WIND       PRES   REMARKS
AUBURN +       CLOUDY    55  46  71 SW10      30.16R
FORT WAYNE     PTSUNNY   58  47  66 SW12      30.16R
HUNTINGTON +   SUNNY     57  48  73 W9        30.17R
KENDALLVILLE + CLOUDY    56  48  76 W7        30.15R

$$

INZ028-029-035-036-043>045-051>053-191500-
WEST CENTRAL INDIANA

CITY           SKY/WX    TMP DP  RH WIND       PRES   REMARKS
CRAWFORDSVL +  SUNNY     55  48  76 SW10      30.19R
GREENCASTLE +  SUNNY     57  46  67 SW5       30.21R
LAFAYETTE      SUNNY     56  50  80 W6        30.18R
TERRE HAUTE    SUNNY     58  48  69 S7        30.21R

$$

INZ030>032-037>040-046>048-054>057-064-065-191500-
CENTRAL INDIANA

CITY           SKY/WX    TMP DP  RH WIND       PRES   REMARKS
CP ATTERBURY + SUNNY     55  50  82 S5        30.23R
COLUMBUS       SUNNY     54  46  76 S8        30.24R
FRANKFORT +    SUNNY     60  51  71 SW8       30.20R
GREENWOOD *+   SUNNY     60  51  73 SW5       30.22R
INDIANAPOLIS   PTSUNNY   57  48  72 SW6       30.22R
-EAGLE CREEK   SUNNY     58  47  66 SW8       30.20R
KOKOMO +       SUNNY     58  49  72 SW13      30.19R
MT COMFORT *+  MOSUNNY   55  50  82 SW6       30.21R
SHELBYVILLE    SUNNY     56  46  69 S9        30.22R
ZIONSVILLE +   SUNNY     57  48  72 SW9       30.21R

$$

INZ033-034-041-042-049-050-058-059-191500-
EAST CENTRAL INDIANA

CITY           SKY/WX    TMP DP  RH WIND       PRES   REMARKS
MUNCIE         SUNNY     60  47  61 SW9       30.19R
RICHMOND +     SUNNY     55  45  67 SW10      30.23R

$$

INZ060-061-067>069-081>083-085>088-191500-
SOUTHWEST INDIANA

CITY           SKY/WX    TMP DP  RH WIND       PRES   REMARKS
EVANSVILLE     SUNNY     57  49  74 SW8       30.25R
HUNTINGBURG +  SUNNY     57  49  74 S9        30.26R
WASHINGTON +   SUNNY     58  46  66 S7        30.23R

$$

INZ062-063-066-070>080-084-089>092-191500-
SOUTH CENTRAL AND SOUTHEAST INDIANA

CITY           SKY/WX    TMP DP  RH WIND       PRES   REMARKS
BEDFORD +      SUNNY     55  46  71 S5        30.23R
BLOOMINGTON    SUNNY     58  47  66 SW8       30.23R
MADISON *+     SUNNY     55  48  76 S5        30.28R
NORTH VERNON + SUNNY     54  46  76 S6        30.25R
SEYMOUR +      SUNNY     57  48  72 S6        30.25R

$$





USA.gov is the U.S. government's official web portal to all federal, state and local government web resources and services.